EW6850 Weather Reports


Display with metric or nautical units.
time (UTC)temp
F
wind
direction
speed
MPH
gust
MPH
rain 1hr
in
rain 24hr
in
rain mn
in
humidity
%
barometer
mb
20260507161540 87 238 6.0 10.0 0.00 0.00 0.00 68 1014.3
20260507160055 86 263 6.0 11.0 0.00 0.00 0.00 67 1014.5
20260507154536 86 245 4.0 11.0 0.00 0.00 0.00 67 1014.8
20260507153030 85 205 6.0 14.0 0.00 0.00 0.00 69 1015.0
20260507151529 84 260 5.0 10.0 0.00 0.00 0.00 69 1014.9
20260507150026 83 250 4.0 11.0 0.00 0.00 0.00 71 1015.0
20260507144524 83 202 3.0 9.0 0.00 0.00 0.00 74 1015.1
20260507143025 82 229 5.0 10.0 0.00 0.00 0.00 76 1015.1
20260507141521 81 211 5.0 13.0 0.00 0.00 0.00 76 1015.1
20260507140032 81 213 4.0 11.0 0.00 0.00 0.00 75 1015.1
20260507134515 81 197 3.0 9.0 0.00 0.00 0.00 75 1015.1
20260507133012 80 217 3.0 8.0 0.00 0.00 0.00 77 1015.3
20260507131508 78 187 3.0 10.0 0.00 0.00 0.00 81 1015.1
20260507130005 77 229 4.0 8.0 0.00 0.00 0.00 82 1015.1
20260507124504 76 213 3.0 9.0 0.00 0.00 0.00 82 1015.3
20260507123004 75 205 3.0 7.0 0.00 0.00 0.00 84 1015.4
20260507121503 74 136 1.0 6.0 0.00 0.00 0.00 86 1015.4
20260507120100 73 202 4.0 7.0 0.00 0.00 0.00 87 1015.2
20260507114559 72 205 2.0 7.0 0.00 0.00 0.00 89 1015.0
20260507113133 71 215 1.0 5.0 0.00 0.00 0.00 90 1015.1
20260507111559 71 220 1.0 3.0 0.00 0.00 0.00 91 1015.1
20260507110058 70 198 1.0 4.0 0.00 0.00 0.00 91 1014.8
20260507104611 70 238 1.0 5.0 0.00 0.00 0.00 91 1014.6
20260507103055 70 209 0.0 5.0 0.00 0.00 0.00 90 1014.5
20260507101556 71 247 1.0 6.0 0.00 0.00 0.00 90 1014.5
20260507100059 71 230 0.0 5.0 0.00 0.00 0.00 90 1014.2
20260507094604 71 214 0.0 4.0 0.00 0.00 0.00 90 1013.7
20260507093053 70 225 0.0 2.0 0.00 0.00 0.00 89 1013.6
20260507091553 71 194 1.0 5.0 0.00 0.00 0.00 89 1013.6
20260507090051 70 218 2.0 4.0 0.00 0.00 0.00 89 1013.7
20260507084558 70 229 0.0 2.0 0.00 0.00 0.00 89 1013.7
20260507083052 70 219 0.0 4.0 0.00 0.00 0.00 90 1013.6
20260507081549 70 236 0.0 0.0 0.00 0.00 0.00 89 1013.5
20260507080051 70 236 0.0 0.0 0.00 0.00 0.00 88 1013.6
20260507074547 71 221 0.0 4.0 0.00 0.00 0.00 89 1013.5
20260507073043 71 235 1.0 2.0 0.00 0.00 0.00 89 1013.7
20260507071544 71 249 0.0 1.0 0.00 0.00 0.00 89 1013.9
20260507070052 72 277 0.0 5.0 0.00 0.00 0.00 89 1014.0
20260507064544 71 218 0.0 0.0 0.00 0.00 0.00 88 1014.1
20260507063038 72 220 0.0 1.0 0.00 0.00 0.00 88 1014.3
20260507061538 72 135 0.0 1.0 0.00 0.00 0.00 88 1014.4
20260507060040 72 192 0.0 0.0 0.00 0.00 0.00 87 1014.6
20260507054538 73 278 0.0 2.0 0.00 0.00 0.00 87 1014.7
20260507053030 73 227 0.0 5.0 0.00 0.00 0.00 86 1014.7
20260507051525 75 262 1.0 6.0 0.00 0.00 0.00 84 1014.9
20260507050046 77 135 3.0 11.0 0.00 0.00 0.00 82 1015.1
20260507044523 77 136 2.0 9.0 0.00 0.00 0.00 81 1014.7
20260507043017 77 138 4.0 10.0 0.00 0.00 0.00 82 1014.7
20260507041515 77 122 3.0 9.0 0.00 0.00 0.00 83 1014.5
20260507040014 77 106 4.0 11.0 0.00 0.00 0.00 82 1014.7
20260507034512 77 145 1.0 8.0 0.00 0.00 0.00 82 1014.9
20260507033016 77 104 3.0 9.0 0.00 0.00 0.00 82 1015.0
20260507031510 77 132 4.0 10.0 0.00 0.00 0.00 82 1014.8
20260507030010 77 101 3.0 10.0 0.00 0.00 0.00 81 1014.7
20260507024515 77 103 5.0 11.0 0.00 0.00 0.00 81 1014.7
20260507023009 77 128 3.0 8.0 0.00 0.00 0.00 80 1014.9
20260507021517 78 106 4.0 9.0 0.00 0.00 0.00 79 1014.8
20260507020010 78 70 3.0 10.0 0.00 0.00 0.00 78 1014.8
20260507014507 78 107 3.0 8.0 0.00 0.00 0.00 78 1014.9
20260507013009 78 222 1.0 7.0 0.00 0.00 0.00 78 1015.0
20260507011514 78 123 3.0 8.0 0.00 0.00 0.00 77 1014.9
20260507010010 78 104 1.0 8.0 0.00 0.00 0.00 77 1014.8
20260507004505 78 78 2.0 9.0 0.00 0.00 0.00 76 1014.6
20260507003005 79 84 2.0 7.0 0.00 0.00 0.00 74 1014.6
20260507001505 79 122 5.0 10.0 0.00 0.00 0.00 70 1014.3
20260507000004 80 97 3.0 8.0 0.00 0.00 0.00 68 1014.4
20260506234504 80 123 3.0 13.0 0.00 0.00 0.00 64 1014.5
20260506233004 81 120 3.0 11.0 0.00 0.00 0.00 61 1014.4
20260506231503 82 134 2.0 10.0 0.00 0.00 0.00 63 1014.5
20260506230002 82 132 3.0 12.0 0.00 0.00 0.00 63 1014.5
20260506224501 83 118 6.0 10.0 0.00 0.00 0.00 64 1014.4
20260506223002 83 74 3.0 10.0 0.00 0.00 0.00 66 1014.6
20260506221600 83 130 4.0 11.0 0.00 0.00 0.00 65 1014.6
20260506214559 83 131 7.0 14.0 0.00 0.00 0.00 64 1014.6
20260506213059 84 105 6.0 13.0 0.00 0.00 0.00 65 1014.6
20260506211558 84 118 7.0 14.0 0.00 0.00 0.00 64 1014.5
20260506210057 85 107 6.0 13.0 0.00 0.00 0.00 65 1014.5
20260506204601 85 141 6.0 11.0 0.00 0.00 0.00 62 1014.7
20260506203056 85 124 6.0 11.0 0.00 0.00 0.00 63 1014.6
20260506201558 85 155 6.0 11.0 0.00 0.00 0.00 61 1014.8
20260506200110 85 100 6.0 13.0 0.00 0.00 0.00 64 1014.8
20260506194614 85 124 6.0 11.0 0.00 0.00 0.00 62 1014.9
20260506193055 85 103 6.0 14.0 0.00 0.00 0.00 64 1014.9
20260506191553 87 86 5.0 12.0 0.00 0.00 0.00 63 1015.1
20260506190053 86 76 5.0 12.0 0.00 0.00 0.00 63 1015.4
20260506184557 86 80 6.0 11.0 0.00 0.00 0.00 63 1015.5
20260506183102 86 90 6.0 12.0 0.00 0.00 0.00 60 1015.6
20260506181558 86 92 6.0 11.0 0.00 0.00 0.00 61 1015.7
20260506180050 85 86 7.0 13.0 0.00 0.00 0.00 64 1015.8
20260506174547 86 115 6.0 10.0 0.00 0.00 0.00 61 1016.0
20260506173054 85 84 5.0 12.0 0.00 0.00 0.00 66 1016.1
20260506171548 86 140 5.0 11.0 0.00 0.00 0.00 63 1016.1
20260506170048 86 96 5.0 11.0 0.00 0.00 0.00 67 1016.3
20260506164550 85 96 7.0 10.0 0.00 0.00 0.00 61 1016.3
20260506163042 85 184 5.0 11.0 0.00 0.00 0.00 65 1016.3